Other Surface Observations
Issued by NWS

Home | Current Version | Previous Version | Text Only | Print | Product List | Glossary On
Versions: 1 2 3 4 5 6 7 8 9 10 11 12 13 14 15 16 17 18 19 20 21 22 23 24 25 26 27 28 29 30 31 32 33 34 35 36 37 38 39 40 41 42 43 44 45 46 47 48 49 50
000
SXUS52 KTAE 261905
OSOTAE
OSOTAE
North Florida/South Alabama/Southwest Georgia Weather Roundup
National Weather Service Tallahassee Florida
200 PM EST FRI DEC 26 2014

Note: "fair" indicates few or no clouds below 12,000 feet with no
significant weather and/or obstructions to visibility.

!FLZ017-115-028-034-025-262000
...North Florida...

CITY           SKY/WX    TMP DP  RH WIND       PRES   REMARKS
TALLAHASSEE    PTSUNNY   64  40  41 VRB6      30.23F
APALACHICOLA   FAIR      64  47  53 E10       30.23F
PERRY          FAIR      65  44  46 E6        30.23F
CROSS CITY       N/A     68  48  48 NE5       30.22F
JACKSONVILLE   FAIR      66  51  58 SE7       30.24F
$$

!FLZ112-006-005-002-011-262000
...Florida Panhandle...

CITY           SKY/WX    TMP DP  RH WIND       PRES   REMARKS
MARIANNA       FAIR      62  42  47 VRB3      30.25F
BONIFAY        NOT AVBL
PANAMA CITY NW FAIR      62  44  51 CALM      30.23F
TYNDALL AFB    FAIR      64  60  86 VRB2      30.24F
TYND DRONE APT FAIR      63  49  61 N7        30.22F
DE FUNIAK SPR  FAIR      60  41  49 N5        30.25F
EGLIN AFB      FAIR      61  47  60 S5        30.24F
DESTIN         FAIR      62  50  64 VRB6      30.24F
HURLBURT       FAIR      63  46  55 VRB6      30.22F
CRESTVIEW      FAIR      62  42  47 CALM      30.26F
PENSACOLA      PTSUNNY   62  49  62 VRB5      30.23F
$$

!ALZ063-066-262000
...South Alabama...

CITY           SKY/WX    TMP DP  RH WIND       PRES   REMARKS
DOTHAN         FAIR      61  41  47 VRB6      30.28F
OZARK CAIRNS   FAIR      60  37  41 VRB2      30.25F
FT RUCKER HELI FAIR      62  37  39 N3        30.25F
RUCKER HELI 3  FAIR      59  39  47 NE5       30.27F
RUCKER HELI 2  FAIR      61  39  44 N6        30.24F
FLORALA APT    FAIR      63  40  42 CALM      30.26F
ANDALUSIA      FAIR      66  39  37 CALM      30.25F
TROY           FAIR      61  36  39 NE3       30.26F
EUFALA         FAIR      61  40  45 SE3       30.26F
MOBILE         PTSUNNY   63  49  60 VRB5      30.23F
$$

!GAZ120>161-262000
...Southwest and South Central Georgia...

CITY           SKY/WX    TMP DP  RH WIND       PRES   REMARKS
THOMASVILLE    FAIR      61  43  51 E7        30.25F
BAINBRIDGE     FAIR      63  46  55 CALM      30.26F
MOODY AFB      FAIR      62  42  48 N7        30.24F
VALDOSTA       FAIR      62  43  49 VRB3      30.25F
MOULTRIE       FAIR      59  43  55 E3        30.26F
BLAKELY        FAIR      64  41  42 E6        30.26F
ALBANY         FAIR      63  39  41 NE7       30.28F
TIFTON         FAIR      59  40  49 E3        30.25F
FITZGERALD     FAIR      62  36  37 N5        30.28F
CORDELE        FAIR      61  38  42 CALM      30.29F
AMERICUS       FAIR      57  39  51 NE3       30.30S
HOMERVILLE     FAIR      64  46  52 CALM      30.26F
$$

!GMZ750-755-770-775-262000
...Coastal and Buoy Obs...

STATION/POSITION TIME  TEMP    WIND        PRES    VSBY  WAVE
                       AIR SEA DIR/SP/G                  HT/PER
                 (UTC) (F)     (DEG/KT/KT) (MB)    (MI)  (FT/S)
KEATON BEACH     1900   63     280/  4/  6 1023.6F
CEDAR KEY        1800   62     100/  3/  3 1024.1F
C TOWER          1900   58      70/ 11/ 12 1023.4F
APALACHICOLA BUO 1800   64 71  110/ 10/ 12 1023.4F         2/ 5
PANAMA CITY BUOY NOT AVBL
MOBILE BUOY      1900   66 74   80/ 10/ 10 1021.4F         2/ 4
ORANGE BCH AL BU 1800   62 68   40/ 14/ 17 1022.9F         2/ 4
$$



USA.gov is the U.S. government's official web portal to all federal, state and local government web resources and services.